NOZ2MA ENGM-LPMA

Flight info

Callsign NOZ2MA
Flight time N/A
Altitude 36000
Route VIPPA DCT DANKO DCT TINAC DCT ROPAL DCT RODSI DCT BUZDE P5 DIGSU N866 GASGU/N0444F370 N866 SAM M195 LORKU DCT EBOMO DCT KORUL DCT DEMOS DCT XANEL DCT TELMU DCT LIDRO
Aircraft B738/M-SDE2E3FGHIRWXY/LB1

Departure

Time N/A
Airport Oslo-Gardermoen International Airport (ENGM)

Arrival

Time 2026-05-06 00:07
Airport Cristiano Ronaldo International Airport (LPMA)
Time Latitude Longitude Altitude Speed Heading
2026-05-05 23:18 35.32338 -14.76294 36166 ft 407 kts 215°
2026-05-05 23:19 35.27489 -14.79851 36181 ft 407 kts 215°
2026-05-05 23:19 35.22650 -14.83396 36186 ft 407 kts 215°
2026-05-05 23:20 35.17777 -14.86961 36187 ft 407 kts 214°
2026-05-05 23:20 35.12938 -14.90496 36190 ft 407 kts 214°
2026-05-05 23:21 35.08068 -14.94048 36195 ft 407 kts 214°
2026-05-05 23:21 35.03190 -14.97601 36179 ft 408 kts 214°
2026-05-05 23:22 34.98302 -15.01156 36183 ft 408 kts 214°
2026-05-05 23:22 34.93456 -15.04677 36188 ft 408 kts 214°
2026-05-05 23:23 34.88561 -15.08227 36185 ft 409 kts 214°
2026-05-05 23:23 34.83663 -15.11776 36180 ft 409 kts 214°
2026-05-05 23:24 34.78801 -15.15293 36164 ft 409 kts 214°
2026-05-05 23:24 34.73896 -15.18835 36174 ft 408 kts 214°
2026-05-05 23:25 34.69010 -15.22359 36191 ft 408 kts 214°
2026-05-05 23:25 34.64155 -15.25857 36178 ft 408 kts 214°
2026-05-05 23:26 34.59254 -15.29383 35949 ft 410 kts 214°
2026-05-05 23:26 34.56814 -15.31136 35660 ft 404 kts 214°
2026-05-05 23:26 34.54402 -15.32865 35249 ft 399 kts 214°
2026-05-05 23:27 34.52053 -15.34549 34858 ft 395 kts 214°
2026-05-05 23:27 34.49691 -15.36242 34473 ft 391 kts 214°
2026-05-05 23:27 34.47356 -15.37915 34080 ft 387 kts 214°
2026-05-05 23:27 34.45053 -15.39564 33642 ft 383 kts 214°
2026-05-05 23:28 34.42775 -15.41194 33253 ft 379 kts 214°
2026-05-05 23:28 34.40523 -15.42805 32863 ft 374 kts 214°
2026-05-05 23:28 34.38281 -15.44408 32476 ft 371 kts 214°
2026-05-05 23:28 34.36068 -15.45989 32098 ft 367 kts 214°
2026-05-05 23:29 34.33897 -15.47540 31729 ft 364 kts 215°
2026-05-05 23:29 34.31727 -15.49088 31357 ft 361 kts 215°
2026-05-05 23:29 34.29567 -15.50629 31001 ft 358 kts 215°
2026-05-05 23:29 34.27426 -15.52155 30642 ft 355 kts 215°
2026-05-05 23:30 34.25329 -15.53649 30289 ft 353 kts 215°
2026-05-05 23:30 34.23218 -15.55152 29862 ft 350 kts 214°
2026-05-05 23:30 34.21133 -15.56635 29502 ft 345 kts 214°
2026-05-05 23:30 34.19059 -15.58109 29123 ft 342 kts 214°
2026-05-05 23:31 34.17049 -15.59537 28751 ft 339 kts 214°
2026-05-05 23:31 34.15023 -15.60976 28397 ft 336 kts 214°
2026-05-05 23:31 34.13016 -15.62401 28013 ft 333 kts 214°
2026-05-05 23:31 34.11024 -15.63815 27669 ft 331 kts 214°
2026-05-05 23:32 34.09041 -15.65221 27299 ft 328 kts 215°
2026-05-05 23:32 34.07070 -15.66618 26941 ft 328 kts 215°
2026-05-05 23:32 34.05109 -15.68008 26600 ft 327 kts 215°
2026-05-05 23:32 34.03136 -15.69407 26261 ft 332 kts 214°
2026-05-05 23:33 34.01115 -15.70841 25912 ft 342 kts 214°
2026-05-05 23:33 33.99039 -15.72311 25525 ft 345 kts 214°
2026-05-05 23:33 33.96999 -15.73752 25137 ft 343 kts 214°
2026-05-05 23:33 33.94938 -15.75205 24771 ft 341 kts 214°
2026-05-05 23:34 33.92891 -15.76648 24409 ft 340 kts 214°
2026-05-05 23:34 33.90853 -15.78085 24041 ft 338 kts 214°
2026-05-05 23:34 33.88832 -15.79510 23641 ft 337 kts 214°
2026-05-05 23:34 33.86803 -15.80939 23236 ft 335 kts 214°
2026-05-05 23:35 33.84813 -15.82341 22850 ft 333 kts 214°
2026-05-05 23:35 33.82816 -15.83747 22479 ft 331 kts 214°
2026-05-05 23:35 33.80829 -15.85146 22113 ft 329 kts 214°
2026-05-05 23:35 33.78860 -15.86530 21754 ft 327 kts 214°
2026-05-05 23:36 33.76918 -15.87895 21403 ft 325 kts 214°
2026-05-05 23:36 33.74964 -15.89269 21045 ft 323 kts 214°
2026-05-05 23:36 33.73030 -15.90627 20702 ft 322 kts 213°
2026-05-05 23:36 33.71118 -15.91969 20357 ft 320 kts 214°
2026-05-05 23:37 33.69189 -15.93322 20011 ft 319 kts 213°
2026-05-05 23:37 33.67278 -15.94661 19659 ft 318 kts 213°
2026-05-05 23:37 33.65374 -15.96031 19194 ft 321 kts 215°
2026-05-05 23:37 33.63473 -15.97479 18547 ft 323 kts 216°
2026-05-05 23:38 33.61585 -15.98938 18087 ft 318 kts 216°
2026-05-05 23:38 33.59758 -16.00351 17718 ft 315 kts 216°
2026-05-05 23:38 33.57916 -16.01774 17363 ft 314 kts 215°
2026-05-05 23:38 33.56085 -16.03184 17018 ft 312 kts 217°
2026-05-05 23:39 33.54250 -16.04594 16684 ft 310 kts 216°
2026-05-05 23:39 33.52435 -16.05987 16353 ft 309 kts 215°
2026-05-05 23:39 33.50628 -16.07371 16028 ft 308 kts 214°
2026-05-05 23:39 33.48817 -16.08756 15707 ft 307 kts 215°
2026-05-05 23:40 33.47039 -16.10113 15373 ft 307 kts 215°
2026-05-05 23:40 33.45234 -16.11490 15049 ft 306 kts 215°
2026-05-05 23:40 33.43441 -16.12858 14724 ft 305 kts 214°
2026-05-05 23:40 33.41650 -16.14224 14396 ft 305 kts 214°
2026-05-05 23:41 33.39857 -16.15590 14064 ft 305 kts 214°
2026-05-05 23:41 33.38065 -16.16955 13720 ft 305 kts 214°
2026-05-05 23:41 33.36279 -16.18314 13366 ft 304 kts 214°
2026-05-05 23:41 33.34494 -16.19671 13035 ft 302 kts 214°
2026-05-05 23:42 33.32743 -16.21001 12621 ft 303 kts 213°
2026-05-05 23:42 33.30963 -16.22354 12269 ft 303 kts 214°
2026-05-05 23:42 33.29183 -16.23705 11931 ft 303 kts 214°
2026-05-05 23:42 33.27397 -16.25062 11616 ft 303 kts 213°
2026-05-05 23:43 33.25603 -16.26424 11261 ft 304 kts 213°
2026-05-05 23:43 33.23821 -16.27775 10929 ft 302 kts 214°
2026-05-05 23:43 33.22056 -16.29113 10606 ft 299 kts 214°
2026-05-05 23:43 33.20326 -16.30425 10288 ft 297 kts 213°
2026-05-05 23:44 33.18599 -16.31733 10136 ft 289 kts 213°
2026-05-05 23:44 33.16916 -16.33007 9953 ft 282 kts 214°
2026-05-05 23:44 33.15283 -16.34243 9640 ft 280 kts 213°
2026-05-05 23:44 33.13662 -16.35471 9341 ft 279 kts 213°
2026-05-05 23:45 33.12036 -16.36699 9039 ft 278 kts 213°
2026-05-05 23:45 33.10412 -16.37926 8745 ft 277 kts 213°
2026-05-05 23:45 33.08821 -16.39209 8444 ft 275 kts 212°
2026-05-05 23:45 33.07184 -16.40388 8135 ft 275 kts 211°
2026-05-05 23:46 33.05540 -16.41570 7818 ft 274 kts 211°
2026-05-05 23:46 33.03930 -16.42729 7535 ft 272 kts 211°
2026-05-05 23:46 33.02307 -16.43900 7248 ft 271 kts 211°
2026-05-05 23:46 33.00702 -16.45059 6975 ft 269 kts 211°
2026-05-05 23:47 32.99100 -16.46217 6745 ft 263 kts 211°
2026-05-05 23:47 32.97574 -16.47322 6624 ft 250 kts 211°
2026-05-05 23:47 32.96137 -16.48364 6529 ft 242 kts 211°
2026-05-05 23:47 32.94673 -16.49358 6404 ft 240 kts 207°
2026-05-05 23:48 32.93221 -16.50238 6293 ft 230 kts 206°
2026-05-05 23:48 32.91821 -16.51077 6200 ft 223 kts 206°
2026-05-05 23:48 32.90441 -16.51902 6059 ft 221 kts 206°
2026-05-05 23:48 32.89053 -16.52735 5837 ft 223 kts 206°
2026-05-05 23:49 32.87697 -16.53550 5641 ft 222 kts 206°
2026-05-05 23:49 32.86339 -16.54377 5438 ft 217 kts 206°
2026-05-05 23:49 32.85015 -16.55178 5298 ft 212 kts 206°
2026-05-05 23:49 32.83715 -16.55977 5208 ft 209 kts 206°
2026-05-05 23:50 32.82459 -16.56752 5193 ft 198 kts 204°
2026-05-05 23:50 32.81219 -16.57482 5076 ft 200 kts 205°
2026-05-05 23:50 32.79974 -16.58246 4823 ft 201 kts 204°
2026-05-05 23:50 32.78731 -16.58977 4616 ft 198 kts 206°
2026-05-05 23:51 32.77533 -16.59728 4396 ft 195 kts 205°
2026-05-05 23:51 32.76331 -16.60462 4239 ft 198 kts 205°
2026-05-05 23:51 32.75087 -16.61281 4039 ft 206 kts 210°
2026-05-05 23:51 32.73957 -16.62324 3864 ft 211 kts 218°
2026-05-05 23:52 32.72822 -16.63433 3669 ft 211 kts 217°
2026-05-05 23:52 32.71707 -16.64505 3450 ft 208 kts 216°
2026-05-05 23:52 32.70585 -16.65553 3222 ft 201 kts 217°
2026-05-05 23:52 32.69495 -16.66544 3031 ft 195 kts 216°
2026-05-05 23:53 32.68416 -16.67539 2816 ft 196 kts 216°
2026-05-05 23:53 32.67359 -16.68518 2589 ft 192 kts 216°
2026-05-05 23:53 32.66309 -16.69495 2300 ft 190 kts 217°
2026-05-05 23:53 32.65292 -16.70437 2045 ft 185 kts 216°
2026-05-05 23:54 32.64288 -16.71363 1854 ft 178 kts 216°
2026-05-05 23:54 32.63315 -16.72259 1656 ft 180 kts 216°
2026-05-05 23:54 32.62314 -16.73178 1587 ft 183 kts 216°
2026-05-05 23:54 32.61308 -16.74113 1471 ft 182 kts 215°
2026-05-05 23:55 32.60342 -16.75041 1338 ft 178 kts 219°
2026-05-05 23:55 32.59571 -16.76121 1301 ft 169 kts 242°
2026-05-05 23:55 32.59255 -16.77418 1200 ft 162 kts 272°
2026-05-05 23:55 32.59459 -16.78706 943 ft 158 kts 302°
2026-05-05 23:56 32.60081 -16.79669 842 ft 139 kts 329°
2026-05-05 23:56 32.60603 -16.80086 943 ft 136 kts 338°
2026-05-05 23:56 32.61756 -16.80675 925 ft 133 kts 344°
2026-05-05 23:56 32.62308 -16.80991 868 ft 134 kts 339°
2026-05-05 23:57 32.63133 -16.81474 794 ft 132 kts 340°
2026-05-05 23:57 32.63987 -16.81817 743 ft 126 kts 356°
2026-05-05 23:57 32.64820 -16.81688 630 ft 119 kts 28°
2026-05-05 23:57 32.65512 -16.81108 531 ft 123 kts 32°
2026-05-05 23:58 32.66258 -16.80574 491 ft 124 kts 31°
2026-05-05 23:58 32.66978 -16.80121 461 ft 117 kts 24°
2026-05-05 23:58 32.67692 -16.79601 477 ft 121 kts 36°
2026-05-05 23:58 32.68393 -16.79021 402 ft 125 kts 32°
2026-05-05 23:59 32.69031 -16.78321 251 ft 125 kts 41°
2026-05-05 23:59 32.69624 -16.77627 313 ft 129 kts 43°
2026-05-05 23:59 32.70325 -16.76867 1014 ft 155 kts 42°
2026-05-05 23:59 32.71269 -16.75916 1511 ft 204 kts 41°
2026-05-06 00:00 32.72255 -16.74926 3180 ft 169 kts 41°
2026-05-06 00:00 32.73260 -16.73896 2999 ft 200 kts 45°
2026-05-06 00:00 32.73913 -16.72501 3114 ft 197 kts 78°
2026-05-06 00:00 32.73686 -16.70890 3383 ft 214 kts 116°
2026-05-06 00:01 32.72607 -16.69687 3900 ft 224 kts 149°
2026-05-06 00:01 32.71109 -16.69275 3901 ft 226 kts 180°
2026-05-06 00:01 32.69570 -16.69537 3695 ft 225 kts 186°
2026-05-06 00:01 32.68067 -16.69861 3419 ft 221 kts 187°
2026-05-06 00:02 32.66589 -16.70313 3050 ft 222 kts 200°
2026-05-06 00:02 32.65202 -16.71006 2919 ft 208 kts 201°
2026-05-06 00:02 32.64060 -16.72000 2634 ft 204 kts 227°
2026-05-06 00:02 32.63101 -16.73248 2315 ft 203 kts 226°
2026-05-06 00:03 32.62132 -16.74469 2037 ft 203 kts 226°
2026-05-06 00:03 32.61211 -16.75681 2000 ft 200 kts 228°
2026-05-06 00:03 32.60297 -16.76960 1924 ft 201 kts 238°
2026-05-06 00:03 32.59938 -16.78495 1671 ft 192 kts 279°
2026-05-06 00:04 32.60415 -16.79863 1542 ft 178 kts 314°
2026-05-06 00:04 32.61233 -16.80997 1476 ft 177 kts 322°
2026-05-06 00:04 32.62125 -16.81848 1399 ft 154 kts 333°
2026-05-06 00:04 32.63008 -16.82380 1302 ft 134 kts 347°
2026-05-06 00:05 32.64694 -16.82058 982 ft 119 kts 34°
2026-05-06 00:05 32.65363 -16.81475 776 ft 124 kts 41°
2026-05-06 00:05 32.66022 -16.80831 744 ft 122 kts 36°
2026-05-06 00:06 32.66747 -16.80313 638 ft 124 kts 30°
2026-05-06 00:06 32.67487 -16.79768 526 ft 123 kts 30°
2026-05-06 00:06 32.68214 -16.79181 432 ft 128 kts 37°
2026-05-06 00:06 32.68869 -16.78508 253 ft 121 kts 41°
2026-05-06 00:07 32.69439 -16.77857 191 ft 110 kts 38°
2026-05-06 00:07 32.69897 -16.77322 176 ft 66 kts 45°
2026-05-06 00:07 32.70102 -16.77081 176 ft 35 kts 46°
2026-05-06 00:07 32.70258 -16.76897 176 ft 29 kts 44°
2026-05-06 00:08 32.70364 -16.76782 176 ft 10 kts 347°
2026-05-06 00:08 32.70375 -16.76798 176 ft 1 kts 269°
2026-05-06 00:08 32.70363 -16.76806 176 ft 3 kts 214°
2026-05-06 00:08 32.70329 -16.76833 176 ft 10 kts 214°
2026-05-06 00:09 32.70257 -16.76905 176 ft 17 kts 225°
2026-05-06 00:09 32.70154 -16.77025 176 ft 24 kts 224°
2026-05-06 00:09 32.70019 -16.77152 176 ft 24 kts 195°
2026-05-06 00:09 32.69858 -16.77165 176 ft 23 kts 199°
2026-05-06 00:10 32.69744 -16.77292 176 ft 22 kts 227°
2026-05-06 00:10 32.69643 -16.77420 176 ft 22 kts 226°
2026-05-06 00:10 32.69542 -16.77545 176 ft 21 kts 226°
2026-05-06 00:10 32.69452 -16.77655 176 ft 14 kts 225°
2026-05-06 00:11 32.69401 -16.77717 176 ft 9 kts 225°
2026-05-06 00:11 32.69382 -16.77736 176 ft 0 kts 211°
2026-05-06 00:11 32.69377 -16.77734 176 ft 1 kts 166°
2026-05-06 00:11 32.69364 -16.77722 176 ft 4 kts 142°
2026-05-06 00:12 32.69344 -16.77701 176 ft 4 kts 138°
2026-05-06 00:12 32.69334 -16.77690 176 ft 2 kts 137°
2026-05-06 00:12 32.69334 -16.77689 176 ft 0 kts 137°